Location: Cluny
(50.9333°N, 112.8167°W)
Time: 18:04:27
(UTC-07:00)

Amateur Radio Satellites - All Passes

Search period start: 26 January 2015 17:34
Search period end: 27 January 2015 17:34
Location: Cluny, 50.9333°N, 112.8167°W

Satellite Date Start Highest point End Downlink Frequencies (MHz)
Time Altitude Azimuth
STARS 26 Jan 17:36:32 17:38:34 13° 306° (NW) 17:40:26 437.465
DANDE 26 Jan 17:37:06 17:42:39 23° 281° (W) 17:47:07 436.750
AUBIESAT-1 26 Jan 17:49:45 17:51:35 14° 306° (NW) 17:53:21 437.475
HO-68 26 Jan 17:50:49 17:54:48 17° 41° (NE) 17:59:02 435.675
STRAND 1 26 Jan 17:57:07 17:58:01 11° 82° (E) 17:59:15 437.568
JAS-2 26 Jan 18:24:22 18:25:49 11° 278° (W) 18:26:56 435.910
SO-50 26 Jan 18:25:25 18:29:56 35° 34° (NE) 18:34:29 436.795
PRISM 26 Jan 18:39:23 18:43:18 40° 98° (E) 18:47:14 437.425
YUBILEINY 26 Jan 18:42:05 18:47:58 22° 76° (ENE) 18:54:12 435.215
Cubesat XI-IV 26 Jan 18:44:02 18:48:54 35° 265° (W) 18:53:45 437.490
O/OREOS (USA 219) 26 Jan 18:50:06 18:54:06 30° 311° (NW) 18:58:07 437.305
MOZHAYETS 4 26 Jan 18:52:43 18:56:25 24° 298° (WNW) 19:00:01
COMPASS 1 26 Jan 18:54:09 18:54:11 10° 54° (NE) 18:54:25 437.405
BRITE-PL 26 Jan 18:54:47 18:58:47 24° 58° (ENE) 19:03:05 437.365/2234.400
CANX-2 26 Jan 18:57:01 18:59:31 16° 59° (ENE) 19:02:09 2200.000
CUBESAT XI-V 26 Jan 18:58:57 19:03:30 48° 98° (E) 19:08:03 437.345
GOMX 1 26 Jan 19:05:15 19:09:04 22° 58° (ENE) 19:13:08 467.674
CUTE-I 26 Jan 19:05:40 19:10:01 24° 269° (W) 19:14:18 437.470
AAUSAT CUBESAT 2 26 Jan 19:20:05 19:22:30 15° 59° (ENE) 19:25:02 437.432
CUTE 1.7 + AOD 2 26 Jan 19:20:38 19:23:57 23° 63° (ENE) 19:27:21 437.475
DOVE 4 26 Jan 19:30:41 19:34:47 25° 60° (ENE) 19:39:06 437.250
STRAND 1 26 Jan 19:33:12 19:38:21 67° 102° (ESE) 19:43:30 437.568
HO-68 26 Jan 19:34:17 19:41:10 55° 63° (ENE) 19:48:08 435.675
CUBEBUG 2 26 Jan 19:36:30 19:38:04 12° 53° (NE) 19:39:49 437.445
CINEMA 3 26 Jan 19:39:44 19:43:10 19° 58° (ENE) 19:46:45 145.822/145.860
UKube-1 26 Jan 19:47:54 19:49:13 11° 54° (NE) 19:50:44 .
SEEDS 26 Jan 19:54:34 19:58:31 38° 68° (ENE) 20:02:30 437.485
ZACube-1 26 Jan 19:56:27 19:58:11 12° 54° (NE) 20:00:06 437.345
DX 1 26 Jan 20:03:47 20:06:23 16° 57° (ENE) 20:09:09 434.975-435.025
SO-50 26 Jan 20:05:56 20:10:46 58° 234° (SW) 20:15:36 436.795
FUNcube-1 26 Jan 20:08:27 20:11:00 15° 57° (ENE) 20:13:41 145.935
PRISM 26 Jan 20:15:15 20:18:42 25° 297° (WNW) 20:22:06 437.425
UWE-3 26 Jan 20:20:16 20:23:47 22° 61° (ENE) 20:27:25 435.000/436.395/437.385
HUMSAT D 26 Jan 20:22:02 20:23:22 11° 55° (NE) 20:24:54 437.325/437.525
COMPASS 1 26 Jan 20:24:58 20:29:10 63° 73° (ENE) 20:33:22 437.405
CANX-2 26 Jan 20:30:40 20:34:59 79° 257° (WSW) 20:39:18 2200.000
BRITE-PL 26 Jan 20:31:45 20:36:48 69° 259° (W) 20:42:17 437.365/2234.400
YUBILEINY 26 Jan 20:34:55 20:43:37 83° 98° (E) 20:52:23 435.215
CUBESAT XI-V 26 Jan 20:36:52 20:40:46 26° 297° (WNW) 20:44:36 437.345
GOMX 1 26 Jan 20:41:33 20:46:38 76° 257° (WSW) 20:52:04 467.674
VELOX 1 26 Jan 20:44:26 20:47:07 16° 57° (ENE) 20:49:56 145.980
Oscar 11 26 Jan 20:46:41 20:50:53 50° 70° (ENE) 20:55:08 145.826/435.025
AAUSAT CUBESAT 2 26 Jan 20:53:28 20:57:42 77° 258° (WSW) 21:01:56 437.432
CUTE 1.7 + AOD 2 26 Jan 20:55:28 20:59:39 49° 261° (W) 21:03:51 437.475
CUBEBUG 1 26 Jan 21:03:11 21:04:17 11° 54° (NE) 21:05:35 437.445
DELFI C3 26 Jan 21:04:47 21:08:49 61° 72° (ENE) 21:12:52 145.870
DOVE 4 26 Jan 21:07:10 21:12:10 61° 260° (W) 21:17:26 437.250
CUBEBUG 2 26 Jan 21:09:14 21:13:55 62° 72° (ENE) 21:18:41 437.445
STRAND 1 26 Jan 21:13:08 21:17:10 23° 302° (WNW) 21:21:07 437.568
CINEMA 3 26 Jan 21:14:52 21:19:50 80° 258° (WSW) 21:24:55 145.822/145.860
UKube-1 26 Jan 21:20:21 21:24:40 69° 72° (ENE) 21:29:01 .
HO-68 26 Jan 21:22:34 21:29:12 39° 265° (W) 21:35:48 435.675
ZACube-1 26 Jan 21:29:13 21:33:48 68° 73° (ENE) 21:38:25 437.345
SEEDS 26 Jan 21:30:49 21:34:29 26° 267° (W) 21:38:06 437.485
DX 1 26 Jan 21:37:47 21:42:09 80° 255° (WSW) 21:46:33 434.975-435.025
FUNcube-1 26 Jan 21:42:07 21:46:44 87° 75° (ENE) 21:51:24 145.935
ESTCUBE 1 26 Jan 21:43:51 21:47:31 26° 63° (ENE) 21:51:15 437.505/2401.250
AISAT 26 Jan 21:49:02 21:53:24 56° 70° (ENE) 21:57:50 437.250
SO-50 26 Jan 21:50:04 21:50:28 10° 252° (WSW) 21:50:36 436.795
AIST 1 26 Jan 21:51:54 21:55:05 20° 65° (ENE) 21:58:20
TIGRISAT 26 Jan 21:52:06 21:53:14 11° 83° (E) 21:54:37 435.000
HUMSAT D 26 Jan 21:54:07 21:58:27 70° 73° (ENE) 22:02:49 437.325/437.525
UWE-3 26 Jan 21:55:19 21:59:58 62° 260° (W) 22:04:41 435.000/436.395/437.385
50 SAT 26 Jan 21:56:02 22:00:05 56° 71° (ENE) 22:04:11 437.505
COMPASS 1 26 Jan 22:02:37 22:05:22 16° 272° (W) 22:07:59 437.405
CANX-2 26 Jan 22:11:31 22:11:47 10° 277° (W) 22:11:48 2200.000
BRITE-PL 26 Jan 22:14:46 22:16:35 11° 281° (WNW) 22:18:09 437.365/2234.400
VELOX 1 26 Jan 22:18:44 22:23:11 81° 256° (WSW) 22:27:41 145.980
GOMX 1 26 Jan 22:23:29 22:25:53 13° 280° (W) 22:28:04 467.674
Oscar 11 26 Jan 22:24:01 22:27:24 21° 269° (W) 22:30:42 145.826/435.025
SPROUT 26 Jan 22:33:18 22:36:25 20° 61° (ENE) 22:39:39 437.525
NANOSAT C BR1 26 Jan 22:33:37 22:36:25 17° 88° (E) 22:39:20 145.865
YUBILEINY 26 Jan 22:34:17 22:41:40 29° 303° (WNW) 22:48:55 435.215
CUBEBUG 1 26 Jan 22:35:36 22:39:54 66° 72° (ENE) 22:44:17 437.445
UNISAT 6 26 Jan 22:41:25 22:45:29 32° 94° (E) 22:49:28 437.425
DELFI C3 26 Jan 22:41:54 22:44:31 16° 272° (W) 22:47:00 145.870
QB50P2 26 Jan 22:45:55 22:49:19 23° 91° (E) 22:52:47 145.880/145.840
CUBEBUG 2 26 Jan 22:47:28 22:51:04 21° 271° (W) 22:54:36 437.445
CINEMA 3 26 Jan 22:55:37 22:57:59 13° 278° (W) 23:00:06 145.822/145.860
QB50P1 26 Jan 22:56:03 22:59:46 27° 94° (E) 23:03:29 145.935-145.965
UKube-1 26 Jan 22:58:39 23:01:22 16° 272° (W) 23:03:57 .
ZACube-1 26 Jan 23:07:33 23:10:43 18° 273° (W) 23:13:45 437.345
POLYITAN 1 26 Jan 23:08:47 23:12:49 36° 97° (E) 23:16:49 437.675
ANTELSAT 26 Jan 23:16:57 23:21:30 68° 102° (ESE) 23:25:54 437.575/2403.000
DX 1 26 Jan 23:18:22 23:19:16 10° 276° (W) 23:19:55 434.975-435.025
TISAT 1 26 Jan 23:18:39 23:22:45 48° 69° (ENE) 23:26:54 437.305
ESTCUBE 1 26 Jan 23:19:54 23:24:14 46° 262° (W) 23:28:34 437.505/2401.250
FUNcube-1 26 Jan 23:21:24 23:23:49 14° 275° (W) 23:26:04 145.935
BUGSAT 1 26 Jan 23:21:57 23:25:57 38° 97° (E) 23:29:59 437.445
TIGRISAT 26 Jan 23:26:20 23:30:55 81° 104° (ESE) 23:35:20 435.000
AISAT 26 Jan 23:27:05 23:30:26 20° 270° (W) 23:33:42 437.250
AIST 1 26 Jan 23:28:53 23:33:07 53° 265° (W) 23:37:21
POPSAT HIP 1 26 Jan 23:30:10 23:34:28 57° 101° (E) 23:38:43 437.405
HUMSAT D 26 Jan 23:32:04 23:34:47 16° 273° (W) 23:37:24 437.325/437.525
50 SAT 26 Jan 23:32:42 23:35:37 18° 271° (W) 23:38:24 437.505
DUCHIFAT 1 26 Jan 23:34:26 23:38:45 63° 101° (ESE) 23:43:01 145.980
VELOX 1 26 Jan 23:59:20 00:00:38 11° 276° (W) 00:01:42 145.980
SWISSCUBE 27 Jan 00:05:06 00:09:15 32° 64° (ENE) 00:13:29 437.505
SPROUT 27 Jan 00:07:55 00:12:11 58° 259° (W) 00:16:29 437.525
NANOSAT C BR1 27 Jan 00:08:29 00:12:46 62° 288° (WNW) 00:17:00 145.865
CUBEBUG 1 27 Jan 00:13:59 00:16:49 16° 272° (W) 00:19:32 437.445
ISS 27 Jan 00:15:09 00:18:15 39° 153° (SSE) 00:21:22 145.825
UNISAT 6 27 Jan 00:18:11 00:22:20 35° 294° (WNW) 00:26:21 437.425
BEESAT 27 Jan 00:21:08 00:25:33 39° 66° (ENE) 00:30:01 436.000
QB50P2 27 Jan 00:21:20 00:25:30 46° 291° (WNW) 00:29:38 145.880/145.840
ITUPSAT 1 27 Jan 00:23:17 00:27:43 40° 66° (ENE) 00:32:13 437.325
QB50P1 27 Jan 00:31:45 00:35:46 38° 293° (WNW) 00:39:45 145.935-145.965
GONETS M04 27 Jan 00:42:57 00:49:48 28° 80° (E) 00:56:53
POLYITAN 1 27 Jan 00:44:53 00:48:41 29° 295° (WNW) 00:52:25 437.675
ANTELSAT 27 Jan 00:54:39 00:57:51 19° 301° (WNW) 01:00:54 437.575/2403.000
TISAT 1 27 Jan 00:55:34 00:58:52 21° 269° (W) 01:02:07 437.305
BUGSAT 1 27 Jan 00:57:41 01:01:22 28° 295° (WNW) 01:04:59 437.445
M-CUBED/EXP-1 PRIME 27 Jan 00:59:08 01:01:02 14° 54° (NE) 01:02:59 437.505
TIGRISAT 27 Jan 01:04:16 01:07:07 16° 303° (WNW) 01:09:48 435.000
POPSAT HIP 1 27 Jan 01:06:48 01:10:02 20° 299° (WNW) 01:13:10 437.405
DUCHIFAT 1 27 Jan 01:11:09 01:14:14 19° 300° (WNW) 01:17:13 145.980
KKS-1 27 Jan 01:24:45 01:28:49 35° 66° (ENE) 01:32:57 437.445
STARS 27 Jan 01:24:46 01:28:26 26° 62° (ENE) 01:32:09 437.465
AUBIESAT-1 27 Jan 01:33:09 01:36:17 24° 59° (ENE) 01:39:17 437.475
O/OREOS (USA 219) 27 Jan 01:35:54 01:40:03 33° 50° (NE) 01:44:13 437.305
Oscar 19 27 Jan 01:41:59 01:46:52 41° 97° (E) 01:51:43 437.125/150
SWISSCUBE 27 Jan 01:42:34 01:47:04 40° 263° (W) 01:51:34 437.505
NANOSAT C BR1 27 Jan 01:47:13 01:47:51 10° 307° (NW) 01:48:18 145.865
ISS 27 Jan 01:51:20 01:54:39 83° 355° (N) 01:57:59 145.825
ITAMSAT 1 27 Jan 01:52:48 01:56:38 21° 89° (E) 02:00:36 435.822/435.867
BEESAT 27 Jan 01:59:16 02:03:31 31° 265° (W) 02:07:45 436.000
ITUPSAT 1 27 Jan 02:01:32 02:05:46 30° 266° (W) 02:09:58 437.325
M-CUBED/EXP-1 PRIME 27 Jan 02:31:37 02:35:40 83° 249° (WSW) 02:39:24 437.505
Gurwin Techsat 1B 27 Jan 02:34:13 02:38:58 32° 94° (E) 02:43:45 435.225
GONETS M04 27 Jan 02:37:03 02:45:51 81° 283° (WNW) 02:54:38
MOZHAYETS 4 27 Jan 02:47:23 02:49:44 14° 56° (ENE) 02:52:14
HORYU 2 27 Jan 03:00:20 03:03:19 18° 89° (E) 03:06:25 437.375
STARS 27 Jan 03:00:26 03:04:43 45° 261° (W) 03:09:03 437.465
KKS-1 27 Jan 03:01:28 03:05:31 32° 265° (W) 03:09:34 437.445
AIST 2 27 Jan 03:02:43 03:03:43 11° 110° (ESE) 03:04:56 435.215
AUBIESAT-1 27 Jan 03:07:21 03:11:08 39° 255° (WSW) 03:14:38 437.475
O/OREOS (USA 219) 27 Jan 03:15:15 03:19:35 40° 250° (WSW) 03:23:51 437.305
BEESAT 2 27 Jan 03:17:10 03:20:46 30° 119° (ESE) 03:24:27 435.950
Oscar 19 27 Jan 03:21:30 03:26:11 35° 296° (WNW) 03:30:48 437.125/150
DANDE 27 Jan 03:27:18 03:32:59 22° 78° (ENE) 03:39:10 436.750
ISS 27 Jan 03:27:55 03:31:15 89° 200° (SSW) 03:34:34 145.825
ITAMSAT 1 27 Jan 03:31:29 03:36:42 68° 290° (WNW) 03:41:54 435.822/435.867
BEESAT 3 27 Jan 03:33:29 03:37:25 45° 123° (ESE) 03:41:26 437.485
RS-15 27 Jan 03:36:34 03:39:57 12° 94° (E) 03:44:14 29.354- 29.394
JAS-2 27 Jan 03:39:37 03:40:19 10° 82° (E) 03:41:24 435.910
CUSAT 1 27 Jan 04:07:20 04:14:48 41° 89° (E) 04:22:28 437.405
PCSat 27 Jan 04:11:19 04:13:58 14° 105° (ESE) 04:16:52 145.827
Gurwin Techsat 1B 27 Jan 04:14:03 04:19:08 45° 294° (WNW) 04:24:09 435.225
MOZHAYETS 4 27 Jan 04:21:44 04:26:21 84° 72° (ENE) 04:30:58
AO-7 27 Jan 04:23:52 04:31:51 47° 99° (E) 04:39:49 29.400- 29.500
CUBESAT XI-V 27 Jan 04:32:50 04:35:07 14° 56° (NE) 04:37:34 437.345
HORYU 2 27 Jan 04:36:02 04:40:29 63° 289° (WNW) 04:44:52 437.375
AIST 2 27 Jan 04:37:22 04:41:38 71° 128° (SE) 04:45:57 435.215
GONETS M04 27 Jan 04:37:34 04:44:23 24° 308° (NW) 04:50:57
YUBILEINY 27 Jan 04:42:58 04:47:56 16° 43° (NE) 04:53:15 435.215
BEESAT 2 27 Jan 04:54:50 04:58:52 46° 319° (NW) 05:02:57 435.950
ISS 27 Jan 05:04:34 05:07:33 31° 211° (SSW) 05:10:31 145.825
DANDE 27 Jan 05:07:04 05:15:19 75° 98° (E) 05:23:58 436.750
BEESAT 3 27 Jan 05:11:54 05:15:42 33° 324° (NW) 05:19:32 437.485
ITAMSAT 1 27 Jan 05:12:36 05:15:24 14° 308° (NW) 05:18:00 435.822/435.867
STRAND 1 27 Jan 05:16:16 05:20:29 28° 61° (ENE) 05:24:49 437.568
Cubesat XI-IV 27 Jan 05:18:17 05:19:24 11° 81° (E) 05:20:51 437.490
JAS-2 27 Jan 05:21:11 05:26:37 63° 102° (ESE) 05:32:38 435.910
PRISM 27 Jan 05:34:43 05:38:46 60° 71° (ENE) 05:42:50 437.425
CUTE-I 27 Jan 05:37:23 05:40:33 16° 85° (E) 05:43:55 437.470
RS-15 27 Jan 05:39:25 05:49:46 53° 117° (ESE) 06:00:21 29.354- 29.394
CUSAT 1 27 Jan 05:49:23 05:57:39 63° 289° (WNW) 06:05:56 437.405
PCSat 27 Jan 05:51:11 05:56:35 75° 125° (SE) 06:02:03 145.827
MOZHAYETS 4 27 Jan 06:01:50 06:04:18 14° 275° (W) 06:06:35
CUBESAT XI-V 27 Jan 06:07:19 06:11:55 82° 74° (ENE) 06:16:35 437.345
HORYU 2 27 Jan 06:15:08 06:16:21 11° 308° (NW) 06:17:23 437.375
AO-7 27 Jan 06:16:48 06:24:51 53° 301° (WNW) 06:32:48 29.400- 29.500
AIST 2 27 Jan 06:16:59 06:20:40 26° 329° (NNW) 06:24:22 435.215
BEESAT 2 27 Jan 06:35:23 06:38:05 16° 342° (NNW) 06:40:44 435.950
YUBILEINY 27 Jan 06:38:45 06:47:21 56° 71° (ENE) 06:55:59 435.215
DANDE 27 Jan 06:51:54 06:59:37 36° 300° (WNW) 07:07:19 436.750
BEESAT 3 27 Jan 06:52:46 06:55:02 14° 347° (NNW) 06:57:17 437.485
STRAND 1 27 Jan 06:54:29 06:59:28 53° 260° (W) 07:04:30 437.568
Cubesat XI-IV 27 Jan 06:55:21 07:00:43 65° 102° (ESE) 07:06:05 437.490
JAS-2 27 Jan 07:07:04 07:11:30 26° 300° (WNW) 07:16:10 435.910
PRISM 27 Jan 07:12:02 07:14:44 16° 271° (W) 07:17:19 437.425
CUTE-I 27 Jan 07:16:04 07:21:29 89° 299° (WNW) 07:26:53 437.470
PCSat 27 Jan 07:35:47 07:40:34 30° 326° (NW) 07:45:20 145.827
CUSAT 1 27 Jan 07:36:25 07:42:30 21° 312° (NW) 07:48:13 437.405
CUBESAT XI-V 27 Jan 07:47:28 07:50:04 14° 275° (W) 07:52:30 437.345
RS-15 27 Jan 07:51:14 08:02:05 64° 324° (NW) 08:13:11 29.354- 29.394
AIST 2 27 Jan 07:58:28 08:00:40 14° 352° (N) 08:02:51 435.215
AO-7 27 Jan 08:10:35 08:15:59 19° 324° (NW) 08:21:09 29.400- 29.500
CANX-2 27 Jan 08:12:47 08:14:46 13° 86° (E) 08:16:56 2200.000
UNISAT 6 27 Jan 08:13:22 08:13:38 10° 52° (NE) 08:14:07 437.425
BEESAT 2 27 Jan 08:16:02 08:17:54 13° 5° (N) 08:19:48 435.950
BRITE-PL 27 Jan 08:31:37 08:36:45 33° 92° (E) 08:41:48 437.365/2234.400
BEESAT 3 27 Jan 08:32:44 08:34:49 13° 11° (N) 08:36:55 437.485
AAUSAT CUBESAT 2 27 Jan 08:33:40 08:35:23 12° 85° (E) 08:37:17 437.432
YUBILEINY 27 Jan 08:35:58 08:44:03 42° 274° (W) 08:52:03 435.215
Cubesat XI-IV 27 Jan 08:36:07 08:40:27 25° 301° (WNW) 08:44:42 437.490
CUTE 1.7 + AOD 2 27 Jan 08:36:26 08:39:36 21° 90° (E) 08:42:50 437.475
GOMX 1 27 Jan 08:38:56 08:43:34 28° 90° (E) 08:48:09 467.674
DANDE 27 Jan 08:42:33 08:46:01 12° 325° (NW) 08:49:04 436.750
HO-68 27 Jan 08:43:55 08:50:18 34° 94° (E) 08:56:45 435.675
ANTELSAT 27 Jan 08:45:51 08:49:01 19° 59° (ENE) 08:52:18 437.575/2403.000
TIGRISAT 27 Jan 08:54:36 08:58:04 21° 60° (ENE) 09:01:37 435.000
POPSAT HIP 1 27 Jan 08:54:57 08:56:54 13° 56° (NE) 08:58:59 437.405
CUTE-I 27 Jan 08:57:14 09:00:56 19° 305° (NW) 09:04:30 437.470
DUCHIFAT 1 27 Jan 08:58:44 09:00:52 14° 57° (ENE) 09:03:09 145.980
DOVE 4 27 Jan 09:01:49 09:06:27 31° 92° (E) 09:11:01 437.250
CINEMA 3 27 Jan 09:06:03 09:09:35 20° 87° (E) 09:13:10 145.822/145.860
SEEDS 27 Jan 09:09:48 09:13:42 36° 96° (E) 09:17:36 437.485
PCSat 27 Jan 09:22:35 09:25:46 15° 351° (N) 09:28:55 145.827
DX 1 27 Jan 09:22:54 09:24:50 13° 86° (E) 09:26:57 434.975-435.025
FUNcube-1 27 Jan 09:27:48 09:29:42 13° 84° (E) 09:31:46 145.935
NANOSAT C BR1 27 Jan 09:31:09 09:34:39 25° 63° (ENE) 09:38:15 145.865
AIST 2 27 Jan 09:38:15 09:40:56 16° 16° (NNE) 09:43:38 435.215
COMPASS 1 27 Jan 09:39:28 09:43:38 61° 101° (E) 09:47:45 437.405
UWE-3 27 Jan 09:41:20 09:44:44 21° 89° (E) 09:48:09 435.000/436.395/437.385
QB50P2 27 Jan 09:43:46 09:47:36 33° 66° (ENE) 09:51:30 145.880/145.840
UNISAT 6 27 Jan 09:44:56 09:49:32 54° 70° (ENE) 09:54:08 437.425
CANX-2 27 Jan 09:47:06 09:51:22 78° 285° (WNW) 09:55:35 2200.000
QB50P1 27 Jan 09:53:43 09:57:42 40° 68° (ENE) 10:01:45 145.935-145.965
BEESAT 2 27 Jan 09:54:09 09:57:33 23° 28° (NNE) 10:00:57 435.950
Oscar 11 27 Jan 10:05:05 10:09:19 50° 99° (E) 10:13:31 145.826/435.025
VELOX 1 27 Jan 10:05:53 10:08:14 14° 86° (E) 10:10:46 145.980
RS-15 27 Jan 10:06:39 10:16:53 41° 355° (N) 10:27:25 29.354- 29.394
POLYITAN 1 27 Jan 10:06:44 10:10:56 53° 71° (ENE) 10:15:11 437.675
AAUSAT CUBESAT 2 27 Jan 10:07:31 10:11:43 80° 286° (WNW) 10:15:52 437.432
BRITE-PL 27 Jan 10:09:56 10:15:27 49° 292° (WNW) 10:20:50 437.365/2234.400
BEESAT 3 27 Jan 10:10:32 10:14:14 29° 34° (NNE) 10:17:55 437.485
CUTE 1.7 + AOD 2 27 Jan 10:11:44 10:15:51 49° 290° (WNW) 10:19:55 437.475
DELFI C3 27 Jan 10:15:17 10:19:16 52° 100° (E) 10:23:14 145.870
GOMX 1 27 Jan 10:16:38 10:22:02 55° 291° (WNW) 10:27:15 467.674
BUGSAT 1 27 Jan 10:17:01 10:21:00 51° 71° (ENE) 10:25:05 437.445
ANTELSAT 27 Jan 10:20:37 10:25:21 76° 257° (WSW) 10:30:06 437.575/2403.000
SO-50 27 Jan 10:27:24 10:29:45 14° 111° (ESE) 10:32:20 436.795
POPSAT HIP 1 27 Jan 10:27:52 10:32:10 83° 76° (ENE) 10:36:31 437.405
TIGRISAT 27 Jan 10:29:45 10:34:27 65° 259° (W) 10:39:09 435.000
HO-68 27 Jan 10:31:27 10:38:29 61° 295° (WNW) 10:45:29 435.675
DUCHIFAT 1 27 Jan 10:31:51 10:36:08 89° 95° (E) 10:40:28 145.980
CUBEBUG 2 27 Jan 10:32:21 10:37:03 69° 101° (ESE) 10:41:33 437.445
VERMONT LUNAR 27 Jan 10:35:51 10:36:26 10° 162° (SSE) 10:37:04 437.305
UKube-1 27 Jan 10:39:10 10:43:31 62° 102° (ESE) 10:47:51 .
DOVE 4 27 Jan 10:39:20 10:44:26 47° 292° (WNW) 10:49:19 437.250
CINEMA 3 27 Jan 10:42:24 10:47:21 65° 288° (WNW) 10:52:04 145.822/145.860
GONETS M04 27 Jan 10:44:56 10:50:50 20° 48° (NE) 10:57:00
SEEDS 27 Jan 10:45:50 10:49:28 28° 295° (WNW) 10:53:01 437.485
ZACube-1 27 Jan 10:49:34 10:54:06 73° 102° (ESE) 10:58:29 437.345
DX 1 27 Jan 10:57:21 11:01:48 86° 287° (WNW) 11:06:12 434.975-435.025
FUNcube-1 27 Jan 11:02:18 11:06:50 87° 287° (WNW) 11:11:14 145.935
50 SAT 27 Jan 11:05:43 11:09:41 46° 99° (E) 11:13:36 437.505
NANOSAT C BR1 27 Jan 11:06:17 11:10:22 42° 262° (W) 11:14:29 145.865
PCSat 27 Jan 11:07:46 11:11:21 17° 17° (NNE) 11:14:58 145.827
ESTCUBE 1 27 Jan 11:07:47 11:11:35 26° 93° (E) 11:15:26 437.505/2401.250
HUMSAT D 27 Jan 11:09:29 11:13:47 67° 102° (ESE) 11:17:59 437.325/437.525
AISAT 27 Jan 11:11:31 11:16:00 57° 101° (E) 11:20:27 437.250
COMPASS 1 27 Jan 11:16:04 11:19:00 18° 299° (WNW) 11:21:49 437.405
AIST 2 27 Jan 11:16:32 11:20:39 41° 39° (NE) 11:24:43 435.215
UWE-3 27 Jan 11:17:11 11:21:42 55° 289° (WNW) 11:26:03 435.000/436.395/437.385
QB50P2 27 Jan 11:19:40 11:23:33 32° 265° (W) 11:27:25 145.880/145.840
PHONESAT 2.4 27 Jan 11:21:01 11:22:29 12° 164° (SSE) 11:23:57 2401.200-2431.200
UNISAT 6 27 Jan 11:22:52 11:26:40 23° 269° (W) 11:30:21 437.425
CANX-2 27 Jan 11:24:57 11:26:40 12° 304° (NW) 11:28:11 2200.000
Oscar 19 27 Jan 11:26:44 11:30:13 19° 56° (NE) 11:33:49 437.125/150
QB50P1 27 Jan 11:30:07 11:33:45 26° 267° (W) 11:37:23 145.935-145.965
BEESAT 2 27 Jan 11:32:04 11:36:18 86° 231° (SW) 11:40:28 435.950
ITAMSAT 1 27 Jan 11:40:48 11:41:58 11° 48° (NE) 11:43:23 435.822/435.867
VELOX 1 27 Jan 11:40:58 11:45:29 80° 286° (WNW) 11:49:59 145.980
Oscar 11 27 Jan 11:41:51 11:45:15 22° 298° (WNW) 11:48:33 145.826/435.025
POLYITAN 1 27 Jan 11:44:00 11:47:14 20° 270° (W) 11:50:24 437.675
AAUSAT CUBESAT 2 27 Jan 11:45:04 11:46:45 12° 304° (WNW) 11:48:16 437.432
BEESAT 3 27 Jan 11:48:32 11:52:39 56° 234° (SW) 11:56:41 437.485
SPROUT 27 Jan 11:50:30 11:53:30 18° 89° (E) 11:56:36 437.525
BRITE-PL 27 Jan 11:50:44 11:52:47 12° 312° (NW) 11:54:37 437.365/2234.400
DELFI C3 27 Jan 11:51:15 11:54:14 19° 298° (WNW) 11:57:06 145.870
AO-7 27 Jan 11:51:35 11:54:20 12° 22° (NNE) 11:57:17 29.400- 29.500
BUGSAT 1 27 Jan 11:53:51 11:56:52 19° 270° (W) 11:59:50 437.445
CUBEBUG 1 27 Jan 11:55:49 12:00:16 67° 102° (ESE) 12:04:42 437.445
GOMX 1 27 Jan 11:56:45 11:59:05 13° 310° (NW) 12:01:13 467.674
ANTELSAT 27 Jan 12:01:33 12:03:04 11° 277° (W) 12:04:19 437.575/2403.000
AIST 1 27 Jan 12:03:24 12:07:38 68° 97° (E) 12:11:54
SO-50 27 Jan 12:04:59 12:09:37 82° 129° (SE) 12:14:25 436.795
POPSAT HIP 1 27 Jan 12:06:41 12:08:45 13° 274° (W) 12:10:39 437.405
CUBEBUG 2 27 Jan 12:09:56 12:13:18 19° 301° (WNW) 12:16:29 437.445
DUCHIFAT 1 27 Jan 12:11:03 12:12:45 12° 275° (W) 12:14:14 145.980
VERMONT LUNAR 27 Jan 12:11:34 12:13:43 15° 179° (S) 12:15:51 437.305
UKube-1 27 Jan 12:16:09 12:19:19 19° 301° (WNW) 12:22:24 .
DOVE 4 27 Jan 12:20:17 12:21:01 10° 312° (NW) 12:21:32 437.250
HO-68 27 Jan 12:20:24 12:24:59 18° 317° (NW) 12:29:23 435.675
RS-15 27 Jan 12:21:19 12:32:08 52° 27° (NNE) 12:43:27 29.354- 29.394
CINEMA 3 27 Jan 12:21:29 12:23:39 13° 308° (NW) 12:25:38 145.822/145.860
Gurwin Techsat 1B 27 Jan 12:23:08 12:26:18 17° 54° (NE) 12:29:38 435.225
ZACube-1 27 Jan 12:26:57 12:30:00 18° 301° (WNW) 12:32:53 437.345
TISAT 1 27 Jan 12:34:13 12:38:22 44° 98° (E) 12:42:30 437.305
DX 1 27 Jan 12:35:06 12:37:27 14° 304° (NW) 12:39:39 434.975-435.025
FUNcube-1 27 Jan 12:40:05 12:42:33 14° 304° (NW) 12:44:51 145.935
GONETS M04 27 Jan 12:41:03 12:49:45 69° 75° (ENE) 12:58:25
50 SAT 27 Jan 12:41:23 12:44:35 22° 297° (WNW) 12:47:40 437.505
ESTCUBE 1 27 Jan 12:44:21 12:48:40 43° 292° (WNW) 12:52:56 437.505/2401.250
HUMSAT D 27 Jan 12:46:14 12:49:09 18° 300° (WNW) 12:51:56 437.325/437.525
AISAT 27 Jan 12:48:48 12:52:19 22° 299° (WNW) 12:55:44 437.250
PCSat 27 Jan 12:51:05 12:56:14 42° 41° (NE) 13:01:24 145.827
AIST 2 27 Jan 12:55:17 12:59:15 36° 239° (WSW) 13:03:08 435.215
PHONESAT 2.4 27 Jan 12:57:53 13:00:13 16° 181° (S) 13:02:32 2401.200-2431.200
CUSAT 1 27 Jan 13:02:56 13:04:33 11° 34° (NE) 13:06:22 437.405
Oscar 19 27 Jan 13:03:46 13:08:59 87° 253° (WSW) 13:14:15 437.125/150
BEESAT 2 27 Jan 13:11:53 13:13:55 13° 248° (WSW) 13:15:48 435.950
ITAMSAT 1 27 Jan 13:15:27 13:20:26 51° 68° (ENE) 13:25:29 435.822/435.867
VELOX 1 27 Jan 13:19:09 13:21:25 14° 305° (NW) 13:23:33 145.980
SPROUT 27 Jan 13:25:43 13:30:02 59° 289° (WNW) 13:34:18 437.525
CUBEBUG 1 27 Jan 13:33:06 13:36:14 19° 301° (WNW) 13:39:16 437.445
SWISSCUBE 27 Jan 13:37:38 13:42:04 36° 96° (E) 13:46:29 437.505
AO-7 27 Jan 13:37:40 13:44:30 30° 47° (NE) 13:51:29 29.400- 29.500
AIST 1 27 Jan 13:43:11 13:45:52 16° 298° (WNW) 13:48:27
SO-50 27 Jan 13:46:39 13:50:43 28° 332° (NNW) 13:54:52 436.795
VERMONT LUNAR 27 Jan 13:49:48 13:51:00 11° 196° (SSW) 13:52:10 437.305
BEESAT 27 Jan 13:53:47 13:58:23 46° 99° (E) 14:03:00 436.000
ITUPSAT 1 27 Jan 13:56:19 14:00:59 48° 99° (E) 14:05:37 437.325
Gurwin Techsat 1B 27 Jan 14:00:15 14:05:33 80° 74° (ENE) 14:10:55 435.225
HORYU 2 27 Jan 14:03:19 14:07:17 31° 65° (ENE) 14:11:17 437.375
DANDE 27 Jan 14:03:56 14:09:34 22° 49° (NE) 14:14:29 436.750
TISAT 1 27 Jan 14:10:28 14:14:00 25° 297° (WNW) 14:17:29 437.305
RS-15 27 Jan 14:34:10 14:45:25 75° 235° (SW) 14:57:08 29.354- 29.394
PCSat 27 Jan 14:34:35 14:39:46 46° 243° (WSW) 14:44:54 145.827
PHONESAT 2.4 27 Jan 14:36:53 14:37:56 11° 198° (SSW) 14:38:56 2401.200-2431.200
GONETS M04 27 Jan 14:38:34 14:46:04 33° 277° (W) 14:53:23
CUSAT 1 27 Jan 14:43:45 14:50:20 38° 61° (ENE) 14:55:31 437.405
STARS 27 Jan 14:45:41 14:49:16 24° 92° (E) 14:52:55 437.465
Oscar 19 27 Jan 14:46:17 14:49:13 15° 275° (W) 14:51:57 437.125/150
KKS-1 27 Jan 14:47:14 14:51:22 35° 96° (E) 14:55:30 437.445
ITAMSAT 1 27 Jan 14:55:48 15:00:14 28° 267° (W) 15:04:39 435.822/435.867
SWISSCUBE 27 Jan 15:15:36 15:19:57 35° 295° (WNW) 15:24:15 437.505
AO-7 27 Jan 15:28:05 15:36:30 90° 247° (WSW) 15:44:57 29.400- 29.500
SO-50 27 Jan 15:29:43 15:32:47 16° 356° (N) 15:35:52 436.795
BEESAT 27 Jan 15:32:00 15:36:05 28° 298° (WNW) 15:40:06 436.000
ITUPSAT 1 27 Jan 15:34:39 15:38:42 27° 298° (WNW) 15:42:41 437.325
JAS-2 27 Jan 15:39:23 15:44:31 46° 67° (ENE) 15:49:29 435.910
HORYU 2 27 Jan 15:39:43 15:43:55 36° 263° (W) 15:48:06 437.375
Gurwin Techsat 1B 27 Jan 15:42:37 15:46:16 18° 273° (W) 15:49:46 435.225
M-CUBED/EXP-1 PRIME 27 Jan 15:44:06 15:46:59 27° 102° (ESE) 15:49:54 437.505
DANDE 27 Jan 15:46:59 15:54:36 84° 76° (ENE) 16:00:19 436.750
O/OREOS (USA 219) 27 Jan 15:55:59 15:57:44 12° 99° (E) 15:59:41 437.305
MOZHAYETS 4 27 Jan 16:13:17 16:15:43 14° 86° (E) 16:18:19
AUBIESAT-1 27 Jan 16:18:41 16:22:00 62° 109° (ESE) 16:25:18 437.475
STARS 27 Jan 16:21:43 16:26:01 46° 291° (WNW) 16:30:16 437.465
KKS-1 27 Jan 16:23:57 16:28:01 33° 295° (WNW) 16:32:00 437.445
CUSAT 1 27 Jan 16:26:59 16:33:37 46° 269° (W) 16:38:39 437.405
Cubesat XI-IV 27 Jan 16:43:38 16:48:13 31° 61° (ENE) 16:52:54 437.490
RS-15 27 Jan 16:47:47 16:56:13 24° 258° (WSW) 17:04:24 29.354- 29.394
CUTE-I 27 Jan 17:03:43 17:08:40 42° 65° (ENE) 17:13:43 437.470
SO-50 27 Jan 17:11:15 17:14:59 22° 20° (NNE) 17:18:48 436.795
M-CUBED/EXP-1 PRIME 27 Jan 17:19:13 17:22:00 24° 300° (WNW) 17:24:45 437.505
JAS-2 27 Jan 17:25:11 17:29:56 29° 266° (W) 17:34:26 435.910
